• MPC Preparation (Info)

  • MPEC 2005-V46 : 2005 VL1

    The following Minor Planet Electronic Circular may be linked-to from your own Web pages, but must not otherwise be redistributed electronically.

    A form allowing access to any MPEC is at the bottom of this page.


    Read MPEC 2005-V45 Read MPEC 2005-V47


    M.P.E.C. 2005-V46                                Issued 2005 Nov. 5, 12:16 UT
    
         The Minor Planet Electronic Circulars contain information on unusual
             minor planets and routine data on comets.  They are published
       on behalf of Commission 20 of the International Astronomical Union by the
              Minor Planet Center, Smithsonian Astrophysical Observatory,
                              Cambridge, MA 02138, U.S.A.
    
                      Supported in part by the Brinson Foundation
                      Supported in part by the TABASGO Foundation
                 Prepared using the Tamkin Foundation Computer Network
    
                                  MPC@CFA.HARVARD.EDU
              URL http://cfa-www.harvard.edu/iau/mpc.html  ISSN 1523-6714
    
                                       2005 VL1
    
    Observations:
         K05V01L* C2005 11 04.33106 04 10 47.55 +22 11 13.4          18.7   EV046704
         K05V01L  C2005 11 04.34303 04 10 20.76 +22 10 12.0          19.4   EV046704
         K05V01L  C2005 11 04.35504 04 09 54.11 +22 09 12.9          19.4   EV046704
         K05V01L  C2005 11 04.37897 04 09 01.11 +22 07 09.4          19.3   EV046704
         K05V01L 5C2005 11 05.23757 03 43 07.15 +20 53 06.3          18.6 R EV046673
         K05V01L 5C2005 11 05.24229 03 42 58.89 +20 52 44.6                 EV046673
         K05V01L 5C2005 11 05.24762 03 42 49.51 +20 52 20.1                 EV046673
         K05V01L 5C2005 11 05.25248 03 42 40.90 +20 51 57.7                 EV046673
    
    Observer details:
    673 Table Mountain Observatory, Wrightwood.  Observer J. Young.  0.6-m f/16
        Cassegrain + CCD.
    704 Lincoln Laboratory ETS, New Mexico.  Observers M. Bezpalko, L. Manguso,
        D. Torres, R. Kracke, A. Milner, H. Love.  Measurers J. Stuart, R. Sayer,
        J. Evans, J. Kommers.  1.0-m f/2.15 reflector + CCD.
    
    Orbital elements:
    2005 VL1
    Epoch 2005 Aug. 18.0 TT = JDT 2453600.5                 MPC
    M  22.96956              (2000.0)            P               Q
    n   1.16830279     Peri.  229.57446     -0.04995312     +0.99874788
    a   0.8928238      Node    37.56251     -0.91498497     -0.04467530
    e   0.2273729      Incl.    0.25476     -0.40038381     -0.02251177
    P   0.84           H   26.1           G   0.15           U   9
    Residuals in seconds of arc
    051104 704  0.4+  0.8+    051104 704  0.1+  0.1+    051105 673  0.3+  0.0
    051104 704  0.7-  1.2-    051105 673  0.3-  0.1-    051105 673  0.4-  0.2+
    051104 704  0.3+  0.3+    051105 673  0.3+  0.1-
    
    Ephemeris:
    2005 VL1                 a,e,i = 0.89, 0.23, 0                   q = 0.6898
    Date    TT    R. A. (2000) Decl.     Delta      r     Elong.  Phase     V
    2005 11 06    03 23.82   +19 51.6    0.0238   1.015   169.9     9.9    18.7
    2005 11 07    03 03.67   +18 34.9    0.0266   1.018   175.7     4.2    18.6
    2005 11 08    02 47.74   +17 27.6    0.0297   1.020   178.5     1.4    18.7
    2005 11 09    02 34.96   +16 29.5    0.0328   1.023   174.8     5.0    19.2
    2005 11 10    02 24.58   +15 39.6    0.0361   1.026   171.2     8.4    19.5
    2005 11 11    02 16.04   +14 56.8    0.0394   1.029   168.1    11.5    19.8
    2005 11 12    02 08.93   +14 20.0    0.0428   1.031   165.3    14.1    20.1
    2005 11 13    02 02.95   +13 48.3    0.0462   1.034   162.7    16.5    20.4
    2005 11 14    01 57.89   +13 20.7    0.0497   1.036   160.4    18.7    20.6
    2005 11 15    01 53.56   +12 56.8    0.0533   1.039   158.3    20.6    20.8
    2005 11 16    01 49.85   +12 36.0    0.0569   1.041   156.3    22.4    21.0
    2005 11 17    01 46.66   +12 17.7    0.0605   1.044   154.5    24.1    21.2
    2005 11 18    01 43.89   +12 01.7    0.0642   1.046   152.7    25.7    21.4
    2005 11 19    01 41.50   +11 47.7    0.0679   1.048   151.1    27.1    21.6
    2005 11 20    01 39.43   +11 35.4    0.0716   1.050   149.5    28.5    21.7
    2005 11 21    01 37.64   +11 24.7    0.0754   1.053   148.1    29.8    21.9
    2005 11 22    01 36.09   +11 15.3    0.0791   1.055   146.6    31.0    22.0
    2005 11 23    01 34.76   +11 07.1    0.0830   1.057   145.3    32.2    22.2
    2005 11 24    01 33.63   +11 00.1    0.0868   1.059   144.0    33.3    22.3
    2005 11 25    01 32.68   +10 54.0    0.0907   1.061   142.7    34.3    22.4
    2005 11 26    01 31.88   +10 48.9    0.0946   1.063   141.5    35.3    22.6
    
    Timothy B. Spahr             (C) Copyright 2005 MPC           M.P.E.C. 2005-V46
    

    Read MPEC 2005-V45 Read MPEC 2005-V47


    MPEC number:

    Enter an MPEC number in one of the following forms:

    • 1997-B01 (the full form)
    • J97B01 (the packed version of the full form)
    • B01 (the abbreviated form)